Regional Weather Roundup
Issued by NWS Little Rock, AR

Home | Current Version | Previous Version | Text Only | Print | Product List | Glossary On
Versions: 1 2 3 4 5 6 7 8 9 10 11 12 13 14 15 16 17 18 19 20 21 22 23 24 25 26 27 28 29 30 31 32
000
ASUS44 KLZK 302005
RWRLZK

WEATHER ROUNDUP FOR ARKANSAS
NATIONAL WEATHER SERVICE LITTLE ROCK AR
300 PM CDT THU MAR 30 2017

NOTE: "FAIR" INDICATES FEW OR NO CLOUDS BELOW 12,000 FEET WITH NO
SIGNIFICANT WEATHER AND/OR OBSTRUCTIONS TO VISIBILITY.

ARZ001-003-010-029-302100-
NORTHWEST ARKANSAS

CITY           SKY/WX    TMP DP  RH WIND       PRES   REMARKS
FAYETTEVILLE   CLOUDY    46  44  93 SW15G25   29.70R
FORT SMITH     CLOUDY    54  41  61 W16       29.72F
HARRISON       CLOUDY    49  41  74 W14G21    29.66S
BENTONVILLE    CLOUDY    46  43  87 W10G20    29.69R
ROGERS         LGT RAIN  45  43  93 W12G20    29.68S
SILOAM SPGS    CLOUDY    46  39  76 W15G21    29.69S
HIGHFILL       CLOUDY    47  43  86 SW13G24   29.68S FOG
$$

ARZ004-005-016-302100-
NORTH CENTRAL ARKANSAS

CITY           SKY/WX    TMP DP  RH WIND       PRES   REMARKS
BATESVILLE     CLOUDY    63  41  45 SW20G28   29.67S
FLIPPIN        CLOUDY    54  37  54 SW16G23   29.64R
$$

ARZ040-041-302100-
WEST CENTRAL ARKANSAS

CITY           SKY/WX    TMP DP  RH WIND       PRES   REMARKS
MENA           CLOUDY    59  46  63 W12G18    29.74S
MOUNT IDA      CLOUDY    58  42  55 VRB3      29.71S
$$

ARZ009-017-025-026-028-302100-
NORTHEAST ARKANSAS

CITY           SKY/WX    TMP DP  RH WIND       PRES   REMARKS
JONESBORO      PTSUNNY   66  51  58 W22G32    29.62R
NEWPORT        PTSUNNY   64  46  52 SW23G30   29.64S
WALNUT RIDGE   SUNNY     64  43  45 SW26G36   29.61S
BLYTHEVILLE    SUNNY     72  56  57 SW23G35   29.59
NW BLYTHEVILLE MOSUNNY   72  50  46 SW26G46   29.59S
$$

ARZ022-023-033-042-044-302100-
CENTRAL ARKANSAS

CITY           SKY/WX    TMP DP  RH WIND       PRES   REMARKS
LITTLE ROCK    PTSUNNY   61  44  53 SW20G31   29.71F
N LITTLE ROCK    N/A     60  45  59 W10G21    29.70S
JACKSONVILLE   PTSUNNY   63  45  51 SW20G29   29.69F
CONWAY           N/A     59  45  58 SW14G21   29.70S
SEARCY         CLOUDY    61  45  55 SW8G21    29.70S
HOT SPRINGS    CLOUDY    59  44  57 W13G21    29.74S
RUSSELLVILLE   CLOUDY    54  42  64 W12       29.72R
$$

ARZ036-302100-
EAST ARKANSAS

CITY           SKY/WX    TMP DP  RH WIND       PRES   REMARKS
WEST MEMPHIS   MOSUNNY   72  50  45 SW18G31   29.62F
$$

ARZ050-053-066-070-073-302100-
SOUTHWEST ARKANSAS

CITY           SKY/WX    TMP DP  RH WIND       PRES   REMARKS
ARKADELPHIA    CLOUDY    59  46  62 SW14      29.76S
CAMDEN         PTSUNNY   66  41  39 SW14      29.74F
TEXARKANA      CLOUDY    64  46  52 W13       29.75F
EL DORADO      MOSUNNY   67  47  48 SW13      29.74F
DE QUEEN       CLOUDY    61  46  57 W14G23    29.74F
$$

ARZ056-057-069-302100-
SOUTHEAST ARKANSAS

CITY           SKY/WX    TMP DP  RH WIND       PRES   REMARKS
PINE BLUFF     SUNNY     68  45  43 SW16G31   29.69F
STUTTGART      SUNNY     68  43  40 SW20G32   29.70R
MONTICELLO     SUNNY     71  46  40 W15G23    29.69F

$$






USA.gov is the U.S. government's official web portal to all federal, state and local government web resources and services.